{"data":{"norad_id":60194,"intl_designator":"2024-124M","name":"STARLINK-11152 [DTC]","alt_names":[],"object_type":"PAYLOAD","status":"ACTIVE","operator":null,"country":"US","launch_date":"2024-07-03","launch_site_code":"AFETR","launch_vehicle":null,"mission":null,"orbit_class":"UNKNOWN","rcs_meters":null,"size_class":null,"mass_kg":null,"dimensions":null,"purposes":["comms"],"wikipedia_slug":null,"has_3d_model":false,"image_url":null,"decayed_at":null,"tle_current":{"epoch":"2026-05-25T03:45:21.968064Z","epoch_age_seconds":65479,"freshness":"FRESH","line1":"1 60194U 24124M   26145.15650426 -.00003911  00000+0 -27442-4 0  9998","line2":"2 60194  53.1569 144.3285 0001443  82.3006 277.8176 15.69701931109739","mean_motion":15.69701931,"eccentricity":0.0001443,"inclination_deg":53.1569,"raan_deg":144.3285,"arg_perigee_deg":82.3006,"mean_anomaly_deg":277.8176,"bstar":-2.7442e-5,"rev_number":10973,"period_min":91.737161786036,"perigee_km":358.7775638369,"apogee_km":360.72211797919,"semimajor_km":6737.886840908,"source":"CELESTRAK","updated_at":"2026-05-25T13:38:19.195705Z"}}}